VK3BYD-3 Weather Reports


Display with metric or nautical units.
time (UTC)temp
F
wind
direction
speed
MPH
gust
MPH
rain 1hr
in
rain 24hr
in
rain mn
in
humidity
%
barometer
mb
20260510164039 42 175 0.0 0.0 0.00 0.01 0.01 98 1029.8
20260510162539 42 175 0.0 0.0 0.00 0.01 0.01 98 1029.9
20260510161039 41 175 0.0 0.0 0.00 0.01 0.01 98 1030.0
20260510155539 41 175 0.0 0.0 0.00 0.01 0.01 97 1030.0
20260510154037 41 175 0.0 0.0 0.00 0.01 0.01 97 1030.0
20260510152537 42 175 0.0 0.0 0.00 0.01 0.01 97 1030.0
20260510151035 42 175 0.0 0.0 0.01 0.01 0.01 97 1030.0
20260510145532 43 175 0.0 0.0 0.01 0.01 0.01 97 1030.0
20260510144033 44 175 0.0 1.0 0.01 0.01 0.01 98 1030.0
20260510142533 45 175 0.0 1.0 0.01 0.01 0.01 98 1029.9
20260510141030 43 175 0.0 1.0 0.00 0.00 0.00 98 1030.0
20260510135530 43 280 0.0 0.0 0.00 0.00 0.00 97 1030.0
20260510134030 43 280 0.0 0.0 0.00 0.00 0.00 97 1030.0
20260510132530 43 280 0.0 0.0 0.00 0.00 0.00 97 1030.0
20260510131031 44 280 0.0 0.0 0.00 0.00 0.00 97 1030.1
20260510125530 44 280 0.0 0.0 0.00 0.00 0.00 97 1030.1
20260510124030 44 280 0.0 0.0 0.00 0.00 0.00 97 1030.2
20260510122528 44 280 0.0 0.0 0.00 0.00 0.00 96 1030.2
20260510121027 45 280 0.0 0.0 0.00 0.00 0.00 96 1030.2
20260510115527 45 280 0.0 0.0 0.00 0.00 0.00 97 1030.1
20260510114024 45 280 0.0 0.0 0.00 0.00 0.00 96 1029.9
20260510112522 45 280 0.0 0.0 0.00 0.00 0.00 96 1029.8
20260510111020 46 280 0.0 0.0 0.00 0.00 0.00 96 1029.6
20260510105518 46 280 0.0 0.0 0.00 0.00 0.00 95 1029.5
20260510104016 47 280 0.0 0.0 0.00 0.00 0.00 95 1029.5
20260510102513 47 280 0.0 0.0 0.00 0.00 0.00 96 1029.7
20260510101010 47 280 0.0 0.0 0.00 0.00 0.00 95 1029.5
20260510095508 47 280 0.0 0.0 0.00 0.00 0.00 94 1029.4
20260510094006 47 280 0.0 0.0 0.00 0.00 0.00 93 1029.2
20260510092506 48 280 0.0 0.0 0.00 0.00 0.00 93 1029.2
20260510091006 48 280 0.0 0.0 0.00 0.00 0.00 91 1029.0
20260510085506 49 280 0.0 0.0 0.00 0.00 0.00 90 1028.9
20260510084007 51 280 0.0 0.0 0.00 0.00 0.00 89 1028.7
20260510082506 52 280 0.0 0.0 0.00 0.00 0.00 90 1028.5
20260510081006 54 280 0.0 0.0 0.00 0.00 0.00 86 1028.2
20260510075506 56 280 0.0 0.0 0.00 0.00 0.00 85 1028.1
20260510074004 57 280 0.0 0.0 0.00 0.00 0.00 84 1027.9
20260510072502 60 280 0.0 0.0 0.00 0.00 0.00 77 1027.8
20260510071000 63 280 0.0 0.0 0.00 0.00 0.00 69 1027.7
20260510065500 67 280 0.0 0.0 0.00 0.00 0.00 65 1027.5
20260510064000 72 280 0.0 0.0 0.00 0.00 0.00 56 1027.4
20260510062500 75 280 0.0 0.0 0.00 0.00 0.00 53 1027.5
20260510061000 75 280 0.0 0.0 0.00 0.00 0.00 55 1027.4
20260510055454 76 280 0.0 1.0 0.00 0.00 0.00 54 1027.4
20260510053954 74 42 0.0 1.0 0.00 0.00 0.00 56 1027.3
20260510052454 75 295 0.0 2.0 0.00 0.00 0.00 57 1027.2
20260510050953 72 279 0.0 2.0 0.00 0.00 0.00 58 1027.3
20260510045454 73 273 0.0 2.0 0.00 0.00 0.00 62 1027.2
20260510043951 73 261 0.0 3.0 0.00 0.00 0.00 61 1027.3
20260510042452 72 274 1.0 3.0 0.00 0.00 0.00 62 1027.3
20260510040952 71 278 0.0 2.0 0.00 0.00 0.00 65 1027.3
20260510035452 71 115 1.0 4.0 0.00 0.00 0.00 62 1027.4
20260510033950 71 143 0.0 3.0 0.00 0.00 0.00 65 1027.5
20260510032448 70 148 0.0 3.0 0.00 0.00 0.00 66 1027.6
20260510030948 69 12 0.0 2.0 0.00 0.00 0.00 67 1027.7
20260510025447 68 122 0.0 3.0 0.00 0.00 0.00 71 1027.8
20260510023948 67 207 0.0 3.0 0.00 0.00 0.00 72 1028.0
20260510022446 66 153 0.0 4.0 0.00 0.00 0.00 74 1028.3
20260510020944 65 38 0.0 2.0 0.00 0.00 0.00 76 1028.4
20260510015442 64 127 0.0 3.0 0.00 0.00 0.00 77 1028.7
20260510013942 63 191 1.0 3.0 0.00 0.00 0.00 78 1028.9
20260510012441 61 223 1.0 4.0 0.00 0.00 0.00 80 1029.1
20260510010941 60 113 0.0 2.0 0.00 0.00 0.00 83 1029.2
20260510005440 58 97 1.0 3.0 0.00 0.00 0.00 84 1029.2
20260510003937 57 246 0.0 3.0 0.00 0.00 0.00 88 1029.2
20260510002447 55 152 0.0 2.0 0.00 0.00 0.00 95 1029.2
20260510000945 53 115 0.0 3.0 0.00 0.00 0.00 96 1029.2
20260509235445 52 166 0.0 4.0 0.00 0.00 0.00 98 1029.2
20260509233941 51 212 0.0 3.0 0.00 0.00 0.00 98 1029.1
20260509232434 50 147 0.0 2.0 0.00 0.00 0.00 99 1029.1
20260509230933 49 179 0.0 2.0 0.00 0.00 0.00 99 1029.2
20260509225433 48 120 0.0 1.0 0.00 0.00 0.00 99 1029.0
20260509223931 47 201 0.0 2.0 0.00 0.00 0.00 99 1029.0
20260509222429 46 98 0.0 1.0 0.00 0.00 0.00 99 1028.9
20260509220926 45 153 0.0 1.0 0.00 0.01 0.00 99 1028.8
20260509215425 42 90 0.0 1.0 0.00 0.01 0.00 99 1028.6
20260509213923 40 90 0.0 1.0 0.00 0.01 0.00 99 1028.4
20260509212421 37 89 0.0 0.0 0.00 0.01 0.00 98 1028.4
20260509210919 37 89 0.0 0.0 0.00 0.01 0.00 98 1028.1
20260509205417 37 90 0.0 0.0 0.00 0.01 0.00 98 1027.9
20260509203918 38 90 0.0 0.0 0.00 0.01 0.00 98 1027.8
20260509202417 39 89 0.0 0.0 0.00 0.01 0.00 98 1027.8
20260509200917 39 89 0.0 0.0 0.00 0.01 0.00 98 1027.7
20260509195417 40 90 0.0 0.0 0.00 0.01 0.00 99 1027.4
20260509193915 42 172 0.0 1.0 0.00 0.01 0.00 99 1027.2
20260509192405 40 101 0.0 1.0 0.00 0.01 0.00 99 1027.1
20260509190905 39 25 0.0 0.0 0.00 0.01 0.00 98 1026.9
20260509185403 38 25 0.0 0.0 0.00 0.01 0.00 98 1026.8
20260509183901 38 25 0.0 0.0 0.00 0.01 0.00 98 1026.5
20260509182357 38 25 0.0 0.0 0.00 0.01 0.00 98 1026.4
20260509180857 38 25 0.0 0.0 0.00 0.01 0.00 98 1026.4
20260509175356 38 25 0.0 0.0 0.00 0.01 0.00 98 1026.2
20260509173856 38 25 0.0 0.0 0.00 0.01 0.00 98 1026.2
20260509172357 39 25 0.0 0.0 0.00 0.01 0.00 98 1026.3
20260509170856 39 25 0.0 0.0 0.00 0.01 0.00 97 1026.3
20260509165356 39 25 0.0 0.0 0.00 0.01 0.00 98 1026.3